Tracking 20942 objects as of 9-Jul-2020
HD Live streaming from Space Station
objects crossing your sky now

COSMOS 2251 DEB

Track COSMOS 2251 DEB now!
10-day predictions


NORAD ID: 37501
Int'l Code: 1993-036BME
Perigee: 588.8 km
Apogee: 669.3 km
Inclination: 74.0 °
Period: 97.1 minutes
Semi major axis: 7000 km
RCS: 0.003 m2 (small)
Launch date: June 16, 1993
Source: Commonwealth of Independent States (former USSR) (CIS)
Launch site: PLESETSK MISSILE AND SPACE COMPLEX (PKMTR)

Note: This is SATELLITE DEBRIS
aabbcc
Your satellite tracking list
Your tracking list is empty




NASA's NSSDC Master Catalog

Two Line Element Set (TLE):
1 37501U 93036BME 20189.76920143  .00000766  00000-0  97668-4 0  9998
2 37501  74.0025 217.4027 0057519 148.3254 212.1406 14.82353146569231
Source of the keplerian elements: AFSPC